Home > Weather > Durban > Past weeks

Flag for South Africa Past Weather in Durban, South Africa — Yesterday and Last 2 Weeks

Now
54 °F

Clear.


Feels Like: 54 °F
Forecast: 61 / 85 °F
Wind: 1 mph from North

Location: King Shaka International Airport

Current Time: Aug 28, 2016 at 7:12:02 AM

Latest Report: Aug 28, 2016 at 6:00 AM


Visibility: 6 mi

Pressure: 30.18 "Hg

Humidity: 88%

Dew Point: 50 °F

Location of DurbanLocation

Past Weather in Durban — Graph

°F

Durban Temperature Yesterday

Maximum temperature yesterday: 79 °F (at 2:00 PM)
Minimum temperature yesterday: 57 °F (at 2:00 AM)
Average temperature yesterday: 66 °F

High & Low Weather Summary for the Past Weeks

 TemperatureHumidityPressure
High82 °F (Aug 13, 2:00 PM)94% (Aug 21, 6:00 AM)30.54 "Hg (Aug 21, 6:00 AM)
Low45 °F (Aug 24, 5:00 AM)24% (Aug 24, 10:48 AM)29.77 "Hg (Aug 13, 4:00 PM)
Average64 °F71%30.18 "Hg
* Reported Aug 13 5:00 AM — Aug 28 5:00 AM, Durban, Weather by CustomWeather, © 2016

Note: Actual official high and low records may vary slightly from our data, if they occured in-between our weather recording intervals... More about our weather records

Advertising

Durban Weather History for the Previous 24 Hours

Scroll right to see more
 ConditionsComfort  
Time TempWeatherWind HumidityBarometerVisibility
5:00 AM
Sun, Aug 28
55 °FClear.1 mph88%30.18 "Hg4 mi
4:00 AM55 °FClear.1 mph88%30.18 "Hg4 mi
3:00 AM54 °FCool.1 mph88%30.18 "Hg1 mi
2:00 AM55 °FCool.No wind88%30.18 "Hg1 mi
1:00 AM57 °FClear.1 mph88%30.18 "Hg6 mi
12:00 AM57 °FClear.2 mph88%30.18 "Hg6 mi
11:00 PM
Sat, Aug 27
57 °FClear.1 mph82%30.18 "Hg6 mi
10:00 PM61 °FClear.1 mph83%30.21 "Hg6 mi
9:00 PM63 °FClear.1 mph83%30.21 "Hg6 mi
8:00 PM66 °FClear.3 mph78%30.18 "Hg10 mi
7:00 PM68 °FClear.5 mph78%30.18 "Hg10 mi
6:00 PM70 °FClear.9 mph78%30.15 "Hg10 mi
5:00 PM73 °FClear.9 mph65%30.15 "Hg10 mi
4:00 PM75 °FSunny.12 mph61%30.15 "Hg10 mi
3:00 PM79 °FSunny.14 mph51%30.15 "Hg10 mi
2:00 PM79 °FSunny.13 mph51%30.18 "Hg10 mi
1:00 PM77 °FSunny.14 mph51%30.18 "Hg10 mi
12:00 PM75 °FSunny.12 mph57%30.21 "Hg10 mi
11:00 AM75 °FSunny.17 mph47%30.24 "Hg10 mi
10:00 AM72 °FSunny.17 mph57%30.24 "Hg10 mi
9:00 AM68 °FSunny.16 mph64%30.27 "Hg10 mi
8:00 AM63 °FSunny.10 mph73%30.27 "Hg10 mi
7:00 AM59 °FSunny.9 mph77%30.27 "Hg10 mi
Weather by CustomWeather, © 2016

See weather overviewHow to use our weather pages